FENGYUN 1C DEB, 36258

Orbit data source: Space-Track

FENGYUN 1C DEB, 36258 is space debris in SSO originally from a launch on Mon, 10 May 1999 UTC launched from the Taiyaun Space Center, China (TSC). Fengyun 1C debris stems from the Chinese weather satellite Fengyun-1C, which was intentionally destroyed by a Chinese anti-satellite missile in 2007. This event dramatically increased the amount of space debris, with thousands of trackable fragments posing hazards to satellites and human spaceflight. The Fengyun 1C debris cloud has become a focal point in discussions about space sustainability and the need for international regulations to prevent the creation of new debris.

Loading next visibility...
Identifier
36258, 1999-025DWK
Orbit
SSO
Country
Flag of CNCN / PRC
Related business
Manufacturer
Unknown
Mission
Spacecraft
Bus & Motor
Unknown
Mass
Unknown
Launch date (UTC)
1999-05-10 (27 years ago)
Launch vehicle
Unknown
Launch site
Taiyaun Space Center, China (TSC)
Object type
Payload
Rocket body
Debris
Shape & HBR
Unknown shape, 0.1 m
Radar Cross Section
Small (<0.1 m²)

Expand to show TLE details & history
Last TLE update: 2 days ago

TLE from 2 days ago
0 FENGYUN 1C DEB
1 36258U 99025DWK 26148.37984079  .00001748  00000-0  21094-3 0  9996
2 36258  99.0630 203.1087 0169497 326.6829  32.3797 14.75795938932795
Epoch: 2026-05-28T09:06Z
TLE epoch observation values (Epoch: 2026-05-28T09:06:58.244Z)
Latitude
-0.00004°
Longitude
-179.55939°
Altitude
545.679 km
Speed
7.643 km/s
True Right ascension
13h 32m 26s
True Declination
0° 00' 00"
Sunlit
Object was in full shadow at epoch
Visualization orbit readout
Latitude
Unknown
Longitude
Unknown
Altitude
Unknown
Speed
Unknown
Apparent Right ascension
Unknown
Apparent Declination
Unknown
Sunlit
N/A
Visualization observer readout
Local Sidereal Time
23:01:52
Azimuth
Unknown
Elevation
Unknown
Doppler factor
Unknown
Orbital elements
Apogee altitude
758.677 km
Perigee altitude
520.776 km
Semi-major axis
7,017.864 km
Eccentricity
0.01695
Inclination
99.063°
RAAN
203.1087°
Arg. of periapsis
326.6829°
True anomaly
33.43873°
Mean anomaly
32.3797°
Eccentric anomaly
32.90731°
Mean motion
3.69178 °/min
Orbital period
97.51 mins
BSTAR
0.00021094
Loading maneuver chart data...
Computing Atmospheric mass density...
Loading historical data...
Loading historical data...
Loading historical data...
Loading historical data...
Loading historical data...
Loading historical data...
Loading historical data...

Documentation

Showing up to 5 results
|